Vertical_Velocity
-10 -5 -5 -5 2 -0 2 0 -3 -1 -6 3 -5 4 3 -4 -0 6 -18 67 30 2 -9 9 14 7 5 3 13 12 9 -2 6 -2 11 1 11 -10 1 -4 5 0 2
-6 -8 -3 -3 -1 -1 1 -3 -0 -6 4 -3 -3 -4 -2 -2 12 14 11 -40 4 4 8 4 8 13 12 -7 7 -4 13 10 -5 -2 5 2 -8 4 1 4 3 2 2
-1 1 -3 -4 1 2 -2 -1 -7 -3 3 -3 -2 -1 4 -8 18 15 47 -15 52 -1 12 13 8 10 4 16 6 15 -11 7 -1 1 1 -0 16 4 -11 -1 6 4 2
-6 0 -5 0 2 3 2 -2 -6 4 2 -0 -9 -2 9 20 4 -13 22 -10 34 8 15 12 7 9 5 -7 -2 -6 3 -3 0 3 1 5 2 1 -2 8 -2 1 2
-4 1 3 2 -1 5 -3 -1 8 -3 -4 -3 3 -4 4 14 4 12 -1 -4 30 21 -3 4 4 9 12 11 10 -0 -12 17 -0 -3 3 -3 4 -10 2 1 7 6 2
-9 -13 -1 -3 2 1 -3 6 5 0 -14 -1 7 3 -6 3 3 15 5 4 21 13 10 -8 7 5 6 3 7 -0 13 -3 4 -8 14 -10 -3 2 -8 11 -0 1 5
-6 -1 4 0 0 1 -5 2 0 0 -1 3 -3 -1 -4 6 7 14 -1 5 13 10 9 14 14 -5 -6 12 0 5 2 -1 11 16 7 -0 -12 5 7 -2 7 0 5
-3 1 4 -1 1 -5 -1 -1 4 1 3 0 -2 -4 5 3 7 1 3 4 6 5 9 7 -7 7 11 -1 -1 -7 1 13 3 -6 -7 0 8 5 5 13 3 4 -3
-4 2 2 -0 -2 -2 -0 -0 4 2 1 -4 -1 -1 5 3 3 2 7 3 8 9 3 5 11 8 -5 3 3 1 4 6 -2 -1 -9 0 1 1 1 3 -0 7 1
-1 1 -3 2 -0 -1 7 2 1 4 -1 -2 -1 2 -0 0 -0 4 4 5 7 0 6 11 4 8 7 -0 7 5 5 5 -1 -2 -1 2 -1 -4 1 1 1 -1 1
-3 1 -2 -1 -2 -0 4 -1 1 2 -0 -2 -1 0 -4 -1 -2 1 9 7 10 4 9 2 -0 -9 10 8 11 8 8 0 1 -2 1 -4 -1 1 2 2 4 -2 1
-1 -5 1 -3 -1 1 3 2 2 1 0 -2 -1 -1 -2 0 2 5 7 3 2 -0 4 9 10 2 10 6 3 -5 -1 -4 0 -1 0 1 2 5 4 1 2 3 3
-4 1 -1 -4 0 2 5 4 1 3 -1 -3 -2 2 -2 -2 -0 8 -0 0 1 0 8 2 3 6 9 4 -7 -3 -2 -1 -1 -1 3 4 -0 1 2 -1 3 3 4
-1 -1 4 -2 -0 -0 3 3 2 1 1 -2 0 -0 2 1 2 -3 -0 4 5 0 4 -3 1 1 -4 -4 -2 -0 0 2 3 2 2 1 -4 0 2 1 2 1 -0
1 -1 0 1 3 3 4 3 -4 3 2 1 3 4 7 0 -0 4 7 5 9 6 0 -1 -2 -1 -6 -2 -2 -2 4 2 -0 -1 -2 1 -0 1 1 -2 1 -1 2
-3 -5 4 3 4 1 3 6 2 -1 3 -2 3 3 2 -1 0 -1 2 3 2 3 1 -1 -0 1 0 -1 -1 -1 0 0 -0 2 3 1 1 4 4 3 4 2 3
-3 -0 1 3 4 -0 4 4 1 -2 -4 -4 -2 0 -0 0 2 4 0 -4 -2 0 -1 -1 -3 -1 2 1 1 2 -1 -1 -2 -1 4 4 4 -1 3 2 3 3 2
-2 -1 0 2 -0 2 3 2 1 -1 1 1 -2 -0 2 3 3 1 0 1 -1 1 3 0 3 1 0 -1 1 4 1 1 -1 1 3 4 2 -2 -1 2 1 4 2
-1 1 1 -0 -2 -2 2 1 0 1 -2 1 5 3 2 1 -1 -1 -2 2 2 1 3 -1 -0 2 0 1 -0 -1 -0 1 2 2 -1 0 3 3 2 -2 2 1 6
-3 -2 0 3 1 1 -1 -3 -1 0 2 1 4 0 3 -1 1 2 -1 1 -1 -1 -0 0 2 1 -0 0 -0 2 1 6 5 5 3 2 6 -1 5 7 6 6 7
-0 -0 -1 2 3 1 1 -2 1 1 2 -1 -1 0 4 2 0 3 -2 -0 1 2 -1 -3 4 1 -1 -1 -0 -2 4 -2 1 2 1 4 0 8 4 -1 2 -1 2
-2 -4 -5 -3 -2 1 1 1 1 -3 -3 -0 1 -1 0 1 -1 -2 1 -0 2 -1 -1 0 -1 -3 4 4 -0 -3 0 3 1 -0 5 -4 2 4 2 1 -0 2 -3
-1 -1 -3 -4 -3 -1 -4 2 -1 -0 -0 -2 0 1 0 -0 0 -4 -0 -4 -0 5 -5 -1 0 -2 1 -2 -1 6 2 -5 -1 -0 2 4 1 5 -0 -3 1 -0 -1
-1 -2 -2 1 -0 -1 -2 -1 -1 2 0 -2 -2 0 0 -3 -1 1 -0 -3 -0 1 -2 -1 3 -1 -4 -3 1 -1 -0 1 2 3 -1 -1 2 3 -1 2 1 0 2
-1 -0 -1 -1 -2 -1 3 3 3 4 2 0 -1 -2 -2 -1 -3 -3 -1 2 -0 -3 -4 -4 -2 -0 -1 2 -2 -3 -2 -2 -1 -1 -2 0 2 0 0 1 -1 -0 0
1 -2 -2 -0 2 2 2 5 5 -1 -0 -1 -2 -1 -1 -1 -1 -0 -0 -2 -2 -4 -0 1 -2 -0 -1 -3 -2 -0 -0 -2 -2 -1 -1 0 0 -0 -0 -0 -0 -1 1
Height
2998 2993 2986 2979 2971 2965 2961 2956 2950 2945 2942 2939 2935 2931 2927 2921 2924 2925 2933 2932 2941 2951 2962 2973 2981 2990 2991 2996 3001 3009 3014 3018 3026 3032 3038 3043 3050 3052 3054 3058 3064 3067 3070
2982 2976 2970 2963 2956 2949 2944 2941 2933 2927 2923 2917 2912 2905 2894 2889 2896 2905 2915 2913 2934 2936 2946 2958 2966 2972 2976 2981 2991 2995 3006 3007 3013 3023 3029 3036 3042 3044 3047 3053 3057 3060 3063
2972 2964 2956 2949 2942 2935 2928 2922 2917 2910 2903 2897 2890 2879 2874 2875 2887 2895 2901 2904 2917 2927 2934 2942 2952 2961 2963 2969 2979 2985 2991 2999 3007 3014 3024 3030 3033 3035 3041 3048 3050 3052 3056
2962 2952 2942 2934 2928 2922 2914 2909 2901 2894 2886 2880 2872 2868 2866 2874 2880 2882 2895 2897 2900 2916 2922 2932 2940 2948 2955 2958 2966 2977 2988 2995 3002 3007 3017 3023 3025 3030 3036 3042 3045 3047 3050
2950 2942 2932 2923 2917 2911 2904 2896 2887 2879 2872 2863 2859 2859 2861 2866 2871 2874 2879 2887 2896 2906 2913 2922 2929 2937 2945 2952 2964 2967 2983 2987 2995 3001 3009 3014 3019 3024 3031 3038 3041 3042 3044
2940 2930 2921 2914 2908 2901 2894 2885 2875 2866 2859 2853 2852 2851 2852 2858 2862 2869 2874 2882 2888 2898 2905 2908 2918 2930 2941 2952 2960 2966 2975 2983 2989 2996 3002 3007 3015 3021 3027 3031 3034 3037 3040
2929 2920 2911 2905 2900 2893 2885 2875 2867 2858 2852 2849 2849 2848 2851 2857 2859 2864 2872 2878 2886 2891 2899 2907 2917 2927 2935 2944 2953 2960 2967 2976 2986 2992 2998 3005 3010 3017 3023 3026 3029 3031 3033
2918 2910 2903 2896 2891 2884 2877 2869 2860 2852 2848 2846 2844 2846 2848 2854 2858 2863 2867 2874 2880 2887 2896 2907 2914 2922 2930 2940 2946 2953 2964 2973 2980 2985 2993 3000 3005 3010 3015 3021 3024 3025 3026
2906 2900 2894 2888 2883 2877 2870 2863 2856 2850 2846 2844 2843 2844 2846 2850 2856 2861 2866 2872 2878 2886 2895 2904 2912 2921 2929 2937 2944 2954 2963 2969 2975 2981 2989 2996 2999 3003 3008 3015 3018 3021 3021
2900 2893 2885 2880 2876 2870 2865 2861 2856 2850 2847 2844 2844 2845 2847 2850 2854 2859 2865 2872 2878 2885 2895 2903 2911 2918 2928 2937 2945 2953 2959 2964 2971 2979 2986 2991 2994 2998 3003 3009 3012 3015 3016
2893 2885 2878 2874 2870 2866 2862 2859 2857 2853 2848 2847 2847 2848 2851 2854 2859 2863 2869 2875 2881 2887 2894 2901 2910 2917 2926 2936 2942 2948 2955 2963 2969 2975 2981 2985 2990 2995 2999 3004 3007 3010 3011
2888 2878 2871 2868 2865 2863 2861 2858 2857 2854 2851 2850 2851 2852 2853 2857 2862 2866 2871 2877 2883 2889 2896 2904 2911 2920 2927 2933 2939 2945 2952 2957 2964 2969 2975 2980 2985 2990 2992 2997 3000 3003 3005
2885 2874 2866 2863 2862 2860 2860 2858 2858 2857 2856 2855 2856 2857 2860 2862 2866 2871 2877 2882 2888 2895 2902 2907 2913 2919 2926 2932 2938 2944 2950 2955 2960 2966 2971 2976 2980 2984 2986 2989 2993 2995 2996
2883 2874 2864 2862 2860 2859 2859 2859 2858 2859 2860 2861 2862 2864 2867 2870 2874 2879 2883 2889 2894 2898 2902 2908 2914 2919 2924 2931 2937 2942 2947 2952 2957 2962 2967 2970 2974 2978 2981 2984 2986 2988 2989
2882 2874 2863 2860 2858 2858 2858 2860 2862 2862 2863 2866 2868 2871 2874 2877 2880 2884 2888 2892 2897 2901 2906 2911 2916 2921 2925 2930 2934 2939 2944 2948 2952 2956 2961 2965 2968 2972 2974 2977 2978 2980 2982
2884 2877 2868 2862 2859 2859 2859 2862 2862 2864 2866 2869 2872 2875 2878 2880 2883 2886 2890 2894 2898 2902 2907 2911 2916 2919 2924 2927 2930 2934 2939 2943 2947 2952 2955 2959 2962 2965 2967 2969 2970 2972 2973
2883 2878 2874 2869 2865 2863 2863 2866 2868 2869 2869 2871 2874 2877 2880 2883 2886 2889 2891 2894 2897 2901 2904 2908 2912 2916 2919 2922 2925 2928 2932 2936 2940 2944 2948 2952 2955 2956 2959 2960 2962 2962 2962
2885 2881 2877 2874 2872 2870 2869 2871 2872 2873 2875 2876 2877 2879 2882 2885 2888 2890 2893 2895 2898 2901 2905 2908 2911 2913 2915 2918 2920 2923 2926 2928 2931 2934 2938 2942 2945 2946 2948 2950 2952 2954 2953
2886 2883 2880 2877 2876 2875 2874 2875 2876 2877 2878 2879 2881 2883 2884 2886 2888 2890 2893 2895 2897 2901 2903 2905 2907 2909 2911 2913 2915 2917 2920 2922 2924 2927 2931 2934 2936 2938 2939 2941 2943 2943 2944
2890 2886 2883 2880 2878 2877 2877 2877 2877 2878 2878 2880 2881 2883 2885 2886 2888 2890 2892 2894 2896 2897 2900 2901 2903 2904 2905 2907 2910 2912 2915 2917 2919 2922 2924 2926 2928 2930 2932 2934 2933 2933 2932
2892 2890 2887 2885 2881 2879 2878 2878 2878 2878 2879 2880 2881 2882 2883 2884 2886 2888 2889 2892 2893 2894 2896 2898 2899 2900 2902 2903 2905 2907 2909 2910 2913 2914 2917 2919 2920 2921 2921 2922 2924 2924 2925
2892 2892 2890 2888 2885 2882 2880 2880 2879 2879 2879 2880 2881 2882 2883 2884 2885 2887 2889 2891 2892 2893 2894 2895 2896 2898 2899 2900 2901 2903 2904 2906 2908 2910 2910 2911 2915 2913 2914 2914 2916 2916 2916
2892 2891 2891 2890 2887 2886 2884 2883 2883 2881 2882 2883 2883 2883 2884 2885 2886 2887 2888 2890 2892 2893 2893 2895 2895 2897 2898 2898 2899 2900 2901 2903 2904 2905 2906 2906 2908 2907 2907 2907 2908 2908 2909
2890 2890 2890 2889 2888 2887 2886 2885 2884 2884 2884 2884 2885 2886 2886 2886 2888 2889 2890 2891 2891 2892 2893 2894 2895 2895 2896 2897 2897 2898 2898 2900 2900 2900 2900 2900 2902 2901 2901 2901 2901 2901 2902
2888 2887 2887 2887 2886 2886 2885 2885 2885 2885 2884 2885 2886 2886 2887 2887 2888 2889 2890 2891 2891 2892 2892 2893 2893 2893 2893 2893 2893 2894 2895 2894 2894 2894 2894 2894 2895 2894 2894 2894 2894 2894 2894
2885 2885 2884 2884 2884 2884 2884 2883 2883 2884 2884 2884 2885 2885 2886 2886 2886 2888 2888 2888 2889 2889 2890 2890 2891 2890 2891 2890 2890 2890 2889 2889 2889 2889 2889 2889 2889 2888 2888 2887 2887 2887 2887